[Iaude] MPEC L41: 2024 LQ [a=1.04,e=0.29,i=6.5,H=25.0]
    mpec at cfa.harvard.edu 
    mpec at cfa.harvard.edu
       
    Tue Jun  4 07:52:06 EDT 2024
    
    
  
M.P.E.C. 2024-L41                                  Issued 2024 June 4, 11:50 UT
     The Minor Planet Electronic Circulars contain information on unusual
         minor planets, routine data on comets and natural satellites,
         and occasional editorial announcements.  They are published
    on behalf of Division F of the International Astronomical Union by the
          Minor Planet Center, Smithsonian Astrophysical Observatory,
                          Cambridge, MA 02138, U.S.A.
			  
             Prepared using the Tamkin Foundation Computer Network
                              MPC at CFA.HARVARD.EDU
            URL https://www.minorplanetcenter.net/    ISSN 1523-6714
                                    2024 LQ                                     
Observations:
     K24L00Q*KC2024 06 02.87023 17 00 47.39 +00 40 37.6          19.3 GXEL041L51
     K24L00Q KC2024 06 02.87183 17 00 46.56 +00 40 15.9          19.7 GXEL041L51
     K24L00Q KC2024 06 02.87345 17 00 45.77 +00 39 55.7          20.3 GXEL041L51
     K24L00Q KC2024 06 02.94633 17 00 09.39 +00 24 24.8          19.1 GXEL041L51
     K24L00Q KC2024 06 02.94873 17 00 08.21 +00 23 54.3          19.3 GXEL041L51
     K24L00Q KC2024 06 02.95112 17 00 07.07 +00 23 23.8          19.0 GXEL041L51
     K24L00Q KB2024 06 02.95969717 00 07.53 +00 21 35.3          19.7 GXEL041I93
     K24L00Q KC2024 06 02.95983717 00 07.272+00 21 20.16         19.2 GVEL041J95
     K24L00Q KB2024 06 02.96168417 00 06.56 +00 21 10.3          19.9 GXEL041I93
     K24L00Q KB2024 06 02.96358717 00 05.60 +00 20 46.2          19.3 GXEL041I93
     K24L00Q KC2024 06 02.96450117 00 05.004+00 20 20.54         19.5 GVEL041J95
     K24L00Q KC2024 06 02.96921717 00 02.698+00 19 20.35         19.8 GVEL041J95
     K24L00Q KB2024 06 02.99992316 59 47.83 +00 13 07.6          19.4 GXEL041958
     K24L00Q KB2024 06 03.00526716 59 45.14 +00 12 00.8          18.8 GXEL041958
     K24L00Q KB2024 06 03.01057716 59 42.48 +00 10 54.2          18.7 GXEL041958
     K24L00Q KC2024 06 03.02101216 59 37.469+00 08 26.92         19.4 GVEL041J95
     K24L00Q KC2024 06 03.02726216 59 34.459+00 07 08.36         19.4 GVEL041J95
     K24L00Q KB2024 06 03.17606 16 58 35.047-00 23 18.71         19.4 RZEL041H36
     K24L00Q KB2024 06 03.18259 16 58 31.973-00 24 38.66         19.1 RZEL041H36
     K24L00Q KB2024 06 03.18910 16 58 28.889-00 25 58.48         19.1 RZEL041H36
     K24L00Q KC2024 06 03.18935616 58 27.64 -00 26 03.7          20.0 GVEL041H21
     K24L00Q KC2024 06 03.19215516 58 26.30 -00 26 38.1          20.2 GVEL041H21
     K24L00Q KC2024 06 03.19495316 58 24.95 -00 27 12.5          20.0 GVEL041H21
     K24L00Q KB2024 06 03.51946616 56 10.544-01 32 08.29         19.6 VZEL041Q06
     K24L00Q KB2024 06 03.52818816 56 06.541-01 33 49.70         18.7 VZEL041Q06
     K24L00Q KB2024 06 03.53677616 56 02.562-01 35 31.28         20.8 VZEL041Q06
     K24L00Q KC2024 06 03.57946 16 55 40.75 -01 40 49.5          19.7 VqEL041E23
     K24L00Q KC2024 06 03.59797 16 55 32.05 -01 44 25.1          19.7 VqEL041E23
     K24L00Q KC2024 06 03.61649 16 55 23.45 -01 48 00.6          19.5 VqEL041E23
     K24L00Q KB2024 06 03.87858 16 53 44.68 -02 41 13.8          19.8 GXEL041G15
     K24L00Q KB2024 06 03.88718 16 53 40.87 -02 42 49.7          19.6 GXEL041G15
     K24L00Q KB2024 06 03.94709 16 53 14.84 -02 54 02.4                VEL041204
     K24L00Q KB2024 06 03.95962 16 53 09.38 -02 56 21.7          19.6 GVEL041204
     K24L00Q KB2024 06 03.97217 16 53 03.92 -02 58 40.9                VEL041204
     K24L00Q KC2024 06 04.17656516 51 48.63 -03 35 41.8          20.6 GVEL041H21
     K24L00Q KC2024 06 04.18280216 51 45.96 -03 36 49.0          20.1 GVEL041H21
     K24L00Q KC2024 06 04.18473016 51 45.13 -03 37 10.0          20.2 GVEL041H21
     K24L00Q KC2024 06 04.18665816 51 44.30 -03 37 30.6          20.4 GVEL041H21
     K24L00Q KC2024 06 04.20057116 51 36.38 -03 40 05.1          19.5 GVEL041932
     K24L00Q KC2024 06 04.20987916 51 32.36 -03 41 45.2          19.9 GVEL041932
     K24L00Q KC2024 06 04.23323016 51 22.48 -03 45 54.7          19.5 GVEL041932
Observer details:
204 Schiaparelli Observatory.  Observer L. Buzzi.  0.84-m f/3.5 reflector +
    CMO.
932 John J. McCarthy Obs., New Milford.  Observer M. Robson.  Measurer W.
    Cloutier.  0.43-m f/6.8 reflector +CCD.
958 Observatoire de Dax.  Observer P. Dupouy.  0.50-m f/4.5 Reflector + CMO.
E23 Arcadia.  Observer A. Hidas.  0.35-m f/1.9 reflector + CCD.
G15 Magroforte Observatory, Alessandria.  Observer A. De Pieri.  0.23-m f/6.7
    SC + CMO.
H21 Astronomical Research Observatory, Westfield.  Observer R. Holmes.
    Measurers T. Linder, R. Holmes, L. Horn.  0.76-m f/3.0 astrograph + CCD.
H36 Sandlot Observatory, Scranton.  Observer G. Hug.  0.56-m f/4.8 reflector +
    CMO.
I93 St Pardon de Conques.  Observer F. Losse.  0.40-m f/3.7 reflector + CMO.
J95 Great Shefford.  Observer P. Birtwhistle.  0.41-m f/6.3 Schmidt-Cassegrain
    + CCD.
L51 MARGO, Nauchnyi.  Observer G. Borisov.  0.50-m f/1.9 reflector + CCD.
Q06 Tarui Observatory, Tarui.  Observer H. Watanabe.  0.35-m f/1.9 Schmidt-
    Cassegrain + CMO.
Orbital elements:
2024 LQ                                                  Earth MOID = 0.0349 AU
Epoch 2024 Mar. 31.0 TT = JDT 2460400.5                 Veres                   
M  17.86984              (2000.0)            P               Q                  
n   0.92415146     Peri.   60.18426     -0.78713050     -0.60638626             
a   1.0438561      Node    82.25599     +0.51930502     -0.75021679             
e   0.2887461      Incl.    6.53596     +0.33278802     -0.26357251             
P   1.07           H   25.04          G   0.15           U   7                  
Residuals in seconds of arc
240602 L51  0.4+  0.7+    240603 958  0.4-  0.4+    240603 E23  0.4-  0.3+
240602 L51  0.1-  0.5-    240603 J95  0.0   0.0     240603 G15  0.3+  0.9+
240602 L51  0.2+  0.1+    240603 J95  0.4+  0.1+    240603 G15  1.0-  1.5+
240602 L51  0.0   0.0     240603 H36  0.6-  0.4-    240603 204  0.0   0.1+
240602 L51  0.1+  0.0     240603 H36  0.1+  0.1+    240603 204  0.0   0.0
240602 L51  0.8+  0.1-    240603 H36  0.5+  0.4+    240603 204  0.1+  0.0
240602 I93  0.2+  0.1+    240603 H21  0.1-  0.1-    240604 H21  0.3+  0.0
240602 J95  0.1-  0.5+    240603 H21  0.0   0.0     240604 H21  0.1+  0.1+
240602 I93  0.3+  0.3+    240603 H21  0.0   0.0     240604 H21  0.1-  0.1-
240602 I93  0.0   0.3+    240603 Q06  0.1+  0.5-    240604 H21  0.2-  0.1+
240602 J95  0.0   0.0     240603 Q06  0.0   0.9+    240604 932  0.2+  0.4-
240602 J95  0.1-  0.5-    240603 Q06  0.6-  0.3+    240604 932  0.6-  0.6-
240602 958  0.9+  0.5-    240603 E23  0.6+  0.4-    240604 932  0.1+  0.0
240603 958  0.2+  0.1+    240603 E23  0.5-  0.1+
Ephemeris:
2024 LQ                  a,e,i = 1.04, 0.29, 7                   q = 0.7424
Date    TT    R. A. (2000) Decl.     Delta      r    Elong.  Phase     V
2024 05 05    02 14 48.8 +50 33 49   0.1139  0.9176    35.0   140.9    27.1
...
2024 05 20    22 35 41.9 +62 04 18   0.04916 0.9936    66.8   110.5    22.7
...
2024 05 28    18 11 42.5 +30 30 10   0.03743 1.0334   121.5    56.7    20.0
...
2024 06 03    16 59 47.5 +00 15 13   0.05202 1.0625   157.1    21.8    19.8
2024 06 04    16 52 53.2 -03 01 41   0.05574 1.0672   160.6    18.4    19.9
2024 06 05    16 46 49.9 -05 53 55   0.05970 1.0719   163.3    15.8    19.9
...
2024 06 11    16 22 34.7 -17 10 54   0.08676 1.0997   165.8    13.1    20.7
...
2024 06 19    16 07 56.3 -24 14 34   0.1283  1.1349   156.5    20.9    21.9
...
2024 07 04    16 03 44.2 -29 35 27   0.2169  1.1945   141.7    31.9    23.5
M. P. C. Staff               (C) Copyright 2024 MPC           M.P.E.C. 2024-L41
    
    
More information about the Iaude
mailing list